Content
SEND FEEDBACK

Daily
Averages
Monthly
Summary
United States of America

FAIRFIELD, MONTANA


Home > North America > United States > Montana
Elevation: 3994 feet     Latitude: 47 37N     Longitude: 111 59W

WEATHER
 
SELECT A DAY
Number of Records: 201,566;   Date Range: 1/1/95 - 12/20/14
 
SHARE

PRINT THIS DATA

[ ← Previous Day ]
WEATHER ALMANAC - AUGUST 15, 2014
[ Next Day → ]
[ °C ]   °F
Weather ElementAverageHighLow
Temperature65.3 °F81 °F (12:53 pm)59 °F (12:53 am)
Dewpoint54.8 °F57.2 °F (3:17 pm)51.8 °F (9:10 am)
Humidity70.8 %90 % (3:53 pm)39 % (9:53 am)
Barometer29.99 in30.09 in (4:53 pm)29.91 in (1:53 am)
Wind Speed9.4 mph28.8 mph (3:17 pm)
Wind Gust48.3 mph (3:17 pm)
Weather ElementAverage
Visibility9 mi
Wind DirectionSSW (202.6 °)

Weather ElementTotal
Precipitation1.33 in
Cooling Degree Days5 (Base 65)
Growing Degree Days20 (Base 50)
Averaged from 31 records on August 15, 2014
WEATHER CONDITIONS BREAKOUT
WIND DIRECTION BREAKOUT
WEATHER BY HOUR - AUGUST 15, 2014
[ °C ]   °F
Local TimeTemperatureDewpointHumidityBarometerVisibilityWind DirectionWind SpeedGust SpeedPrecipitationEventsConditions
12:53 AM66.0 °F54.0 °F65 %29.91 in10.0 miENE (70°)6.9 mphClear
1:53 AM59.0 °F52.0 °F78 %29.94 in10.0 miWNW (290°)8.1 mphClear
2:53 AM60.1 °F52.0 °F75 %29.92 in10.0 miNNW (340°)3.5 mphClear
3:53 AM59.0 °F54.0 °F83 %29.95 in10.0 miWNW (290°)6.9 mphClear
4:53 AM61.0 °F57.0 °F87 %29.97 in10.0 miWNW (300°)8.1 mphScattered Clouds
5:40 AM62.6 °F55.4 °F77 %30.07 in10.0 miWNW (290°)9.2 mphThunderstormMostly Cloudy
5:53 AM62.1 °F53.1 °F72 %29.98 in10.0 miNW (310°)6.9 mphThunderstormThunderstorm
6:29 AM62.6 °F51.8 °F68 %30.06 in10.0 miNorth (350°)5.8 mph0.00 inRainLight Rain
6:53 AM60.1 °F53.1 °F78 %30.00 in10.0 miSW (230°)6.9 mph0.00 inOvercast
7:53 AM60.8 °F53.6 °F77 %30.09 in10.0 miWest (270°)5.8 mphScattered Clouds
8:53 AM64.0 °F54.0 °F70 %30.01 in10.0 miSSW (200°)8.1 mphMostly Cloudy
9:53 AM69.1 °F54.0 °F58 %30.00 in10.0 miSouth (190°)8.1 mphPartly Cloudy
10:53 AM69.1 °F53.1 °F57 %29.99 in10.0 miVariable3.5 mphClear
11:53 AM75.9 °F54.0 °F46 %29.96 in10.0 miVariable4.6 mphClear
12:53 PM79.0 °F54.0 °F42 %29.93 in10.0 miENE (70°)8.1 mphClear
1:53 PM81.0 °F54.0 °F39 %29.93 in10.0 miCalmClear
2:53 PM78.1 °F53.1 °F42 %29.95 in10.0 miWest (280°)3.5 mphScattered Clouds
3:09 PM77.0 °F53.6 °F44 %30.03 in10.0 miSW (220°)20.7 mph33.4 mphThunderstormMostly Cloudy
3:17 PM60.8 °F57.2 °F88 %30.06 in1.5 miWSW (240°)28.8 mph48.3 mph0.00 inRain-ThunderstormThunderstorms and Rain
3:19 PM60.8 °F57.2 °F88 %30.07 in0.8 miWSW (250°)21.9 mph48.3 mph0.03 inRain-ThunderstormHeavy Thunderstorms and Rain
3:39 PM59.0 °F55.4 °F88 %30.05 in2.5 miWNW (290°)20.7 mph31.1 mph0.41 inRain-ThunderstormThunderstorms and Rain
3:46 PM60.8 °F55.4 °F82 %30.05 in6.0 miWest (270°)17.3 mph27.6 mph0.42 inRain-ThunderstormLight Thunderstorms and Rain
3:53 PM60.1 °F57.0 °F90 %30.00 in8.0 miWest (270°)16.1 mph0.43 inRain-ThunderstormLight Thunderstorms and Rain
4:16 PM60.8 °F55.4 °F82 %29.99 in9.0 miNNW (330°)9.2 mph0.02 inRainLight Rain
4:53 PM61.0 °F57.0 °F87 %29.97 in10.0 miSouth (180°)6.9 mph0.02 inClear
5:53 PM64.0 °F57.0 °F78 %29.94 in10.0 miSouth (170°)9.2 mphClear
6:53 PM69.1 °F55.0 °F61 %29.95 in10.0 miESE (120°)5.8 mphClear
7:53 PM69.1 °F55.9 °F63 %29.94 in10.0 miEast (100°)3.5 mphClear
8:53 PM64.9 °F57.0 °F75 %29.95 in10.0 miEast (90°)9.2 mphClear
9:53 PM64.9 °F57.0 °F75 %29.97 in10.0 miENE (60°)10.4 mphPartly Cloudy
11:53 PM61.0 °F55.0 °F81 %29.95 in10.0 miSSW (210°)9.2 mph0.00 inClear
Hourly data recorded from KGTF, located miles away from Fairfield, Montana







STORIES FROM OUR PARTNERS